Regional Weather Roundup
Issued by NWS

Home | Current Version | Previous Version | Graphics & Text | Print | Product List | Glossary On
Versions: 1 2 3 4 5 6 7 8 9 10 11 12 13 14 15 16 17 18 19 20 21 22 23 24 25 26 27 28 29 30 31 32 33 34 35 36 37 38 39 40 41 42 43 44 45 46 47 48 49 50
000
ASUS43 KMPX 220101
RWRMN
WEATHER ROUNDUP FOR MINNESOTA
NATIONAL WEATHER SERVICE TWIN CITIES/CHANHASSEN MN
800 PM CDT THU SEP 21 2017


NOTE: "FAIR" INDICATES FEW OR NO CLOUDS BELOW 12,000 FEET WITH NO
SIGNIFICANT WEATHER AND/OR OBSTRUCTIONS TO VISIBILITY. N/A MEANS
CURRENT SKY AND/OR WEATHER CONDITIONS ARE NOT AVAILABLE.

MNZ060>063-068>070-220200-
   Twin Cities Metro

CITY           SKY/WX    TMP DP  RH WIND       PRES   REMARKS
TWIN CITIES    MOCLDY    80  69  69 SE15      29.79S
ST PAUL        PTCLDY    77  69  76 SE12      29.80S
CRYSTAL        CLOUDY    79  65  62 SE9       29.78R
LAKEVILLE      PTCLDY    73  70  88 CALM      29.80R
EDEN PRAIRIE   CLOUDY    82  70  66 E9        29.78R
SOUTH ST PAUL  CLEAR     78  67  67 SE5       29.79S
LAKE ELMO      FAIR      77  68  73 E8        29.82S
$$
MNZ001>005-007-008-013>017-022>024-027-028-220200-
   Northwest Minnesota

CITY           SKY/WX    TMP DP  RH WIND       PRES   REMARKS
BEMIDJI        MOCLDY    67  52  58 SE8       29.79S
HALLOCK          N/A     70  46  43 SE7       29.71R
ROSEAU         CLOUDY    70  54  56 CALM      29.77R
WARROAD        CLOUDY    70  54  56 S7        29.77R
CROOKSTON      PTCLDY    72  54  53 SE8       29.72R
FOSSTON        PTCLDY    68  54  60 SE9       29.75S
DETROIT LAKES  CLEAR     72  59  64 SE13      29.75S
MOORHEAD       MOCLDY    75  63  64 SE3       29.70S
PARK RAPIDS    PTCLDY    71  58  63 E8        29.77F
MAHNOMEN       MOCLDY    69  55  61 SE10      29.74R
$$
MNZ006-009>011-018-025>026-220200-
   North Central Minnesota

CITY           SKY/WX    TMP DP  RH WIND       PRES   REMARKS
BAUDETTE       CLOUDY    66  51  58 SE9       29.78S
FLAG ISLAND    PTCLDY    66  52  59 SE8       29.76R
INTL FALLS     PTCLDY    62  50  64 SE9       29.82S
WASKISH        CLEAR     64  54  68 SE7       29.79S
BIG FORK       PTCLDY    66  55  68 SE6       29.84R
LONGVILLE      MOCLDY    70  57  64 SE6       29.81S
GRAND RAPIDS   CLOUDY    67  58  72 SE7       29.87R
CRANE LAKE     MOCLDY    61  54  77 CALM      29.89R
ORR            MOCLDY    63  52  67 SE6       29.85R
COOK           CLEAR     63  55  77 SE7       29.88R
WALKER         MOCLDY    67  56  67 E5        29.79F
$$
MNZ012-019>021-037-220200-
   Northeast Minnesota

CITY           SKY/WX    TMP DP  RH WIND       PRES   REMARKS
DULUTH         CLOUDY    60  56  86 E17G24    29.91R
ELY            CLEAR     59  48  67 SE8       29.90S
HIBBING        CLEAR     61  53  75 SE13      29.88R
EVELETH        CLEAR     60  44  54 E7        29.90S
DULUTH HARBOR  CLOUDY    63  59  88 NE22      29.91R
TWO HARBORS    PTCLDY    63  54  72 E14       29.91S
SILVER BAY     PTCLDY    59  50  72 NE6       29.93S
GRAND MARAIS     N/A     61  47  59 NE10G16   29.95S
$$
MNZ029>031-032-039>041-046>048-054>057-064-220200-
   West Central Minnesota

CITY           SKY/WX    TMP DP  RH WIND       PRES   REMARKS
FERGUS FALLS   MOCLDY    75  64  69 SE8       29.70R
WHEATON        CLEAR     73  66  78 SE6       29.70R
MORRIS         CLEAR     77  70  78 SE12      29.70R
ALEXANDRIA     PTCLDY    74  68  81 E10       29.76S
ELBOW LAKE     MOCLDY    74  68  81 SE8       29.72R
WADENA         PTCLDY    70  63  78 SE12      29.76S
GLENWOOD       CLEAR     73  68  83 SE9       29.76S
APPLETON       CLEAR     81  70  69 SE9       29.70R
BENSON         PTCLDY    79  70  73 SE8       29.74R
ORTONVILLE     CLEAR     75  70  83 NE7       29.70R
MADISON        PTCLDY    79  72  78 SE8       29.71R
WILLMAR        FAIR      75  70  83 SE8       29.76R
$$
MNZ033>034-036-042>043-049>051-058-059-220200-
   Central Minnesota

CITY           SKY/WX    TMP DP  RH WIND       PRES   REMARKS
ST CLOUD       MOCLDY    75  69  81 E8        29.78R
SAUK CENTRE    FAIR      73  67  83 E8        29.77S
PAYNESVILLE    PTCLDY    76  69  79 E7        29.78R
AITKIN         CLOUDY    68  61  77 E6        29.82S
PINE RIVER     CLOUDY    70  57  64 SE8       29.84S
BRAINERD       MOCLDY    71  63  75 SE3       29.81R
STAPLES        MOCLDY    72  63  73 SE6       29.78S
LITTLE FALLS   MOCLDY    72  61  68 E8        29.79S
LITCHFIELD     CLEAR     75  70  83 SE5       29.78R
BUFFALO        MOCLDY    76  67  73 E6        29.79S
MAPLE LAKE     CLOUDY    76  70  81 E5        29.79R
HUTCHINSON     CLEAR     76  71  84 E7        29.78R
$$
MNZ037-044-045-052-053-220200-
   East Central Minnesota

CITY           SKY/WX    TMP DP  RH WIND       PRES   REMARKS
PRINCETON      PTCLDY    75  68  78 E6        29.80S
MORA           CLOUDY    73  64  73 E7        29.84F
RUSH CITY      CLEAR     74  67  81 E5        29.83F
MOOSE LAKE     MOCLDY    61  57  88 NE5       29.85F
HINCKLEY       CLOUDY    73  70  88 E8        29.84F
CLOQUET        CLOUDY    61  55  82 E9        29.90R
MCGREGOR       CLOUDY    64  59  82 E12       29.86R
$$
MNZ071>073-080-081-089-090-097-098-220200-
   Southwest Minnesota

CITY           SKY/WX    TMP DP  RH WIND       PRES   REMARKS
MONTEVIDEO     CLEAR     79  70  73 S8        29.73R
GRANITE FALLS  CLEAR     79  71  77 SE6       29.75R
CANBY          MOCLDY    76  71  82 E7        29.72S
MARSHALL       CLEAR     78  71  79 SE8       29.73R
REDWOOD FALLS  CLEAR     78  69  73 SE9       29.74R
OLIVIA         CLEAR     77  70  78 SE6       29.75R
PIPESTONE      CLEAR     79  72  78 S12       29.74R
WINDOM         CLEAR     77  70  78 SE8       29.77R
WORTHINGTON    PTCLDY    77  71  82 S9        29.77R
JACKSON        CLEAR     79  70  73 CALM      29.79R
TRACY          CLEAR     79  71  77 S9        29.73S
SLAYTON        CLEAR     77  69  77 SE9       29.75S
$$
MNZ065>067-074>077-082>085-091>093-220200-
   South Central Minnesota

CITY           SKY/WX    TMP DP  RH WIND       PRES   REMARKS
MANKATO        CLOUDY    81  70  69 S8        29.79R
NEW ULM        CLEAR     79  68  69 SE8       29.76R
ST JAMES       CLEAR     79  70  73 SE8       29.78R
FAIRMONT       CLEAR     77  71  82 S8        29.79R
GLENCOE        CLEAR     76  73  90 E7        29.77S
FARIBAULT      PTCLDY    79  68  69 SE7       29.81R
OWATONNA       CLEAR     79  70  73 SE7       29.82R
WASECA         MOCLDY    77  68  73 SE6       29.82R
ALBERT LEA     PTCLDY    82  72  69 S8        29.83R
$$
MNZ078>079-086>088-094>096-220200-
   Southeast Minnesota

CITY           SKY/WX    TMP DP  RH WIND       PRES   REMARKS
ROCHESTER      PTCLDY    77  66  68 SE13      29.86R
RED WING       PTCLDY    79  64  61 SE13      29.82S
STANTON        PTCLDY    81  67  61 SE9       29.79S
DODGE CENTER   CLEAR     75  64  69 SE9       29.85R
WINONA         CLEAR     77  64  65 SE7       29.87S
AUSTIN         CLEAR     81  68  65 S7        29.84R
PRESTON        CLEAR     77  63  61 SE12      29.89R
$$
ABBREVIATIONS USED IN REMARKS
   TC - TEMPERATURES IN CELSIUS
  WCI - WIND CHILL INDEX
   HX - HEAT INDEX
  VSB - VISIBILITY
$$



USA.gov is the U.S. government's official web portal to all federal, state and local government web resources and services.